CW7218 Weather Reports


Display with metric or nautical units.
time (UTC)temp
F
wind
direction
speed
MPH
gust
MPH
rain 1hr
in
rain 24hr
in
rain mn
in
humidity
%
barometer
mb
20190319184017 46 22 2.0 4.0 0.00 0.00 0.00 70 1021.6
20190319183017 46 0.0 3.0 0.00 0.00 0.00 70 1021.4
20190319182017 46 180 2.0 5.0 0.00 0.00 0.00 70 1021.2
20190319181017 46 157 2.0 5.0 0.00 0.00 0.00 69 1021.3
20190319180017 46 180 3.0 7.0 0.00 0.00 0.00 70 1021.2
20190319175017 47 180 3.0 5.0 0.00 0.00 0.00 70 1020.9
20190319174017 47 202 4.0 7.0 0.00 0.00 0.00 69 1020.8
20190319173017 47 202 5.0 9.0 0.00 0.00 0.00 69 1020.6
20190319172016 47 202 5.0 8.0 0.00 0.00 0.00 70 1020.4
20190319171016 47 202 5.0 8.0 0.00 0.00 0.00 69 1020.2
20190319170017 48 202 5.0 10.0 0.00 0.00 0.00 68 1020.0
20190319165017 48 202 5.0 9.0 0.00 0.00 0.00 67 1019.9
20190319164017 49 180 6.0 11.0 0.00 0.00 0.00 64 1019.9
20190319163016 50 180 5.0 9.0 0.00 0.00 0.00 57 1019.6
20190319162016 50 180 4.0 7.0 0.00 0.00 0.00 51 1019.5
20190319161016 50 180 4.0 6.0 0.00 0.00 0.00 49 1019.5
20190319160016 51 180 3.0 6.0 0.00 0.00 0.00 49 1019.6
20190319155016 51 180 4.0 7.0 0.00 0.00 0.00 48 1019.4
20190319154016 51 180 3.0 6.0 0.00 0.00 0.00 47 1019.4
20190319153016 51 180 4.0 7.0 0.00 0.00 0.00 48 1019.3
20190319152016 51 180 5.0 9.0 0.00 0.00 0.00 47 1019.3
20190319151016 52 180 3.0 8.0 0.00 0.00 0.00 46 1019.4
20190319150016 51 135 4.0 9.0 0.00 0.00 0.00 45 1019.4
20190319145016 51 135 6.0 11.0 0.00 0.00 0.00 45 1019.3
20190319144016 52 180 5.0 11.0 0.00 0.00 0.00 45 1019.3
20190319143018 52 202 4.0 7.0 0.00 0.00 0.00 41 1019.2
20190319142016 51 270 5.0 11.0 0.00 0.00 0.00 41 1018.8
20190319141016 51 270 6.0 10.0 0.00 0.00 0.00 41 1019.0
20190319140016 51 247 5.0 9.0 0.00 0.00 0.00 41 1018.7
20190319135016 51 247 7.0 11.0 0.00 0.00 0.00 41 1018.8
20190319134016 52 247 6.0 12.0 0.00 0.00 0.00 41 1018.9
20190319133016 51 202 7.0 11.0 0.00 0.00 0.00 42 1018.8
20190319132016 51 202 8.0 14.0 0.00 0.00 0.00 41 1018.9
20190319131016 52 180 8.0 14.0 0.00 0.00 0.00 41 1018.9
20190319130016 51 202 10.0 16.0 0.00 0.00 0.00 41 1019.0
20190319125016 52 202 12.0 20.0 0.00 0.00 0.00 41 1018.8
20190319124016 53 180 4.0 13.0 0.00 0.00 0.00 40 1019.1
20190319123016 52 112 2.0 5.0 0.00 0.00 0.00 39 1019.2
20190319122015 51 157 2.0 6.0 0.00 0.00 0.00 41 1019.2
20190319121016 50 202 3.0 10.0 0.00 0.00 0.00 42 1019.3
20190319120016 51 202 3.0 8.0 0.00 0.00 0.00 43 1019.3
20190319115016 51 180 4.0 7.0 0.00 0.00 0.00 44 1019.4
20190319114015 50 202 5.0 8.0 0.00 0.00 0.00 44 1019.3
20190319113015 51 180 3.0 7.0 0.00 0.00 0.00 44 1019.4
20190319112015 51 247 7.0 11.0 0.00 0.00 0.00 44 1019.3
20190319111015 54 112 3.0 9.0 0.00 0.00 0.00 40 1019.5
20190319110015 54 112 4.0 16.0 0.00 0.00 0.00 35 1019.6
20190319105015 53 157 5.0 15.0 0.00 0.00 0.00 39 1019.4
20190319104017 52 157 5.0 11.0 0.00 0.00 0.00 45 1019.3
20190319103015 51 180 6.0 13.0 0.00 0.00 0.00 46 1019.2
20190319102015 50 157 6.0 11.0 0.00 0.00 0.00 51 1019.2
20190319101015 50 157 7.0 14.0 0.00 0.00 0.00 54 1019.3
20190319100015 50 157 6.0 10.0 0.00 0.00 0.00 52 1019.3
20190319095015 51 135 4.0 9.0 0.00 0.00 0.00 53 1019.4
20190319094015 50 112 2.0 7.0 0.00 0.00 0.00 51 1019.4
20190319093015 49 112 2.0 5.0 0.00 0.00 0.00 56 1019.5
20190319092017 47 180 2.0 5.0 0.00 0.00 0.00 60 1019.2
20190319091017 47 157 2.0 5.0 0.00 0.00 0.00 63 1019.2
20190319090017 46 202 2.0 3.0 0.00 0.00 0.00 65 1019.3
20190319085017 44 180 4.0 6.0 0.00 0.00 0.00 69 1019.1
20190319084017 44 180 4.0 7.0 0.00 0.00 0.00 70 1019.2
20190319083017 44 157 5.0 7.0 0.00 0.00 0.00 70 1019.3
20190319082017 43 315 2.0 4.0 0.00 0.00 0.00 67 1019.1
20190319081017 43 157 2.0 5.0 0.00 0.00 0.00 68 1019.1
20190319080017 43 157 5.0 10.0 0.00 0.00 0.00 69 1019.1
20190319075017 45 157 2.0 5.0 0.00 0.00 0.00 62 1019.3
20190319074017 45 112 1.0 4.0 0.00 0.00 0.00 62 1019.0
20190319073017 43 90 3.0 6.0 0.00 0.00 0.00 65 1019.0
20190319072017 41 45 3.0 7.0 0.00 0.00 0.00 66 1018.8
20190319071017 40 45 2.0 4.0 0.00 0.00 0.00 69 1018.8
20190319070017 40 45 3.0 6.0 0.00 0.00 0.00 71 1018.7
20190319065017 40 112 3.0 5.0 0.00 0.00 0.00 71 1019.0
20190319064017 40 135 1.0 4.0 0.00 0.00 0.00 72 1019.0
20190319063017 40 270 2.0 6.0 0.00 0.00 0.00 72 1018.9
20190319062017 39 315 4.0 7.0 0.00 0.00 0.00 73 1018.7
20190319061017 39 90 3.0 7.0 0.00 0.00 0.00 74 1018.9
20190319060016 40 45 1.0 5.0 0.00 0.00 0.00 70 1019.0
20190319055017 40 22 3.0 5.0 0.00 0.00 0.00 69 1018.8
20190319054017 40 112 2.0 3.0 0.00 0.00 0.00 73 1018.9
20190319053016 40 0.0 3.0 0.00 0.00 0.00 75 1019.1
20190319052016 41 0.0 0.0 0.00 0.00 0.00 75 1019.1
20190319051016 41 135 1.0 4.0 0.00 0.00 0.00 75 1019.1
20190319050016 40 0.0 2.0 0.00 0.00 0.00 74 1019.0
20190319045016 41 135 1.0 3.0 0.00 0.00 0.00 74 1019.3
20190319044016 41 135 1.0 5.0 0.00 0.00 0.00 74 1019.4
20190319043016 41 270 1.0 4.0 0.00 0.00 0.00 74 1019.3
20190319042016 41 270 2.0 4.0 0.00 0.00 0.00 74 1019.2
20190319041016 40 0.0 2.0 0.00 0.00 0.00 75 1019.3
20190319040016 40 0.0 0.0 0.00 0.00 0.00 75 1019.3
20190319035016 41 0.0 0.0 0.00 0.00 0.00 74 1019.2
20190319034016 41 112 1.0 2.0 0.00 0.00 0.00 74 1019.2
20190319033016 41 112 1.0 3.0 0.00 0.00 0.00 74 1019.0
20190319032016 42 112 1.0 2.0 0.00 0.00 0.00 71 1019.2
20190319031016 42 112 2.0 4.0 0.00 0.00 0.00 71 1019.4
20190319030016 42 67 2.0 6.0 0.00 0.00 0.00 70 1019.3
20190319025016 42 67 3.0 7.0 0.00 0.00 0.00 70 1019.4
20190319024016 42 45 4.0 8.0 0.00 0.00 0.00 70 1019.4
20190319023016 42 67 5.0 8.0 0.00 0.00 0.00 70 1019.4
20190319022016 42 67 5.0 8.0 0.00 0.00 0.00 70 1019.8
20190319021016 42 90 5.0 7.0 0.00 0.00 0.00 71 1019.8
20190319020016 42 90 5.0 10.0 0.00 0.00 0.00 71 1020.0
20190319015016 42 67 6.0 9.0 0.00 0.00 0.00 71 1020.2
20190319014016 42 90 3.0 7.0 0.00 0.00 0.00 71 1020.3
20190319013016 42 270 1.0 3.0 0.00 0.00 0.00 72 1020.5
20190319012016 42 270 2.0 5.0 0.00 0.00 0.00 72 1020.3
20190319011016 42 135 2.0 4.0 0.00 0.00 0.00 71 1020.3
20190319010016 42 90 2.0 3.0 0.00 0.00 0.00 71 1020.4
20190319005016 42 90 1.0 2.0 0.00 0.00 0.00 71 1020.5
20190319004016 42 90 2.0 5.0 0.00 0.00 0.00 71 1020.6
20190319003016 42 67 3.0 5.0 0.00 0.00 0.00 71 1020.6
20190319002016 42 67 4.0 7.0 0.00 0.00 0.00 70 1020.4
20190319001016 42 90 3.0 6.0 0.00 0.00 0.00 71 1020.3
20190319000016 42 90 4.0 6.0 0.00 0.00 0.00 70 1020.6
20190318235016 43 180 2.0 5.0 0.00 0.00 0.00 69 1020.6
20190318234016 43 180 1.0 3.0 0.00 0.00 0.00 69 1020.6
20190318233016 43 0.0 2.0 0.00 0.00 0.00 69 1020.6
20190318232016 43 180 1.0 3.0 0.00 0.00 0.00 69 1020.5
20190318231016 43 180 2.0 5.0 0.00 0.00 0.00 68 1020.6
20190318230016 44 180 1.0 2.0 0.00 0.00 0.00 67 1020.5
20190318225016 44 180 1.0 3.0 0.00 0.00 0.00 68 1020.6
20190318224016 43 180 1.0 5.0 0.00 0.00 0.00 66 1020.6
20190318223016 44 180 3.0 5.0 0.00 0.00 0.00 67 1020.8
20190318222016 44 180 3.0 6.0 0.00 0.00 0.00 66 1020.7
20190318221015 45 247 1.0 4.0 0.00 0.00 0.00 65 1020.9
20190318220015 45 247 1.0 3.0 0.00 0.00 0.00 64 1020.7
20190318215015 45 247 1.0 4.0 0.00 0.00 0.00 64 1020.8
20190318214015 46 247 2.0 4.0 0.00 0.00 0.00 64 1020.8
20190318213016 46 225 2.0 4.0 0.00 0.00 0.00 64 1020.8
20190318212015 46 247 1.0 4.0 0.00 0.00 0.00 65 1020.7
20190318211015 46 247 2.0 4.0 0.00 0.00 0.00 66 1020.8
20190318210015 46 247 3.0 5.0 0.00 0.00 0.00 65 1020.5
20190318205016 46 225 4.0 7.0 0.00 0.00 0.00 65 1020.4
20190318204015 46 225 4.0 6.0 0.00 0.00 0.00 64 1020.1
20190318203004 47 180 3.0 5.0 0.00 0.00 0.00 64 1020.1
20190318202015 47 247 2.0 5.0 0.00 0.00 0.00 63 1020.0
20190318201017 46 247 4.0 6.0 0.00 0.00 0.00 63 1019.9
20190318200017 47 202 3.0 6.0 0.00 0.00 0.00 61 1019.8
20190318195017 47 225 3.0 6.0 0.00 0.00 0.00 61 1019.6
20190318194017 48 225 3.0 6.0 0.00 0.00 0.00 61 1019.7
20190318193017 48 180 3.0 6.0 0.00 0.00 0.00 59 1019.5
20190318192018 48 0.0 2.0 0.00 0.00 0.00 59 1019.6
20190318191017 48 180 1.0 3.0 0.00 0.00 0.00 58 1019.5
20190318190017 49 180 2.0 4.0 0.00 0.00 0.00 58 1019.4
20190318185017 49 202 4.0 6.0 0.00 0.00 0.00 57 1019.2